Location: Blokzijl
(52.7266°N, 5.9611°E)
Time: 00:10:27
(UTC+00:00)

Daily predictions for brighter satellites

Satellite Brightness Start Highest point End
(mag) Time Altitude Azimuth Time Altitude Azimuth Time Altitude Azimuth
CENTAUR R/B 4.1 02:05:13 35° NNE 02:05:13 35° NNE 02:11:02 10° ENE
ACS3 Solar Sail 3.6 01:59:39 10° NNE 02:03:45 26° ENE 02:03:45 26° ENE
Cosmos 2360 Rocket 4.2 02:17:23 24° ENE 02:17:23 24° ENE 02:20:07 10° NE
Cosmos 2322 Rocket 4.2 02:17:43 25° ENE 02:17:43 25° ENE 02:20:21 10° NE
SL-16 R/B 4.1 02:24:11 25° NE 02:24:11 25° NE 02:26:30 10° NE
Cosmos 1943 Rocket 4.2 02:24:44 23° NE 02:24:44 23° NE 02:28:51 10° E
ADEOS Rocket 3.8 02:32:27 10° NNE 02:38:45 52° E 02:38:45 52° E
Cosmos 2219 Rocket 3.3 02:55:06 39° E 02:55:06 39° E 02:59:55 10° NE
CZ-2D R/B 4.1 03:12:55 10° N 03:14:23 18° N 03:14:23 18° N
USA 267 3.4 03:13:08 10° ENE 03:19:37 60° SE 03:20:18 57° S
Cosmos 2333 4.5 03:21:23 67° ENE 03:21:23 67° ENE 03:26:32 10° NE
Cosmos 967 Rocket 4.5 03:24:31 74° N 03:24:31 74° N 03:30:29 10° NE
Cosmos 1980 Rocket 4.0 03:27:56 19° N 03:27:56 19° N 03:30:35 10° NNE
Cosmos 2228 Rocket 4.5 03:26:00 36° E 03:26:13 36° E 03:30:15 10° NNE
Cosmos 1269 Rocket 4.4 03:29:01 60° NE 03:29:14 61° ENE 03:34:28 10° SE
H-2A R/B 3.4 03:25:40 10° NNE 03:28:04 29° N 03:28:04 29° N
Cosmos 2278 Rocket 3.1 03:29:48 31° N 03:32:05 46° NE 03:37:31 10° ESE
USA 238 DEB 3.7 03:33:04 58° NNW 03:33:04 58° NNW 03:39:53 10° NE
USA 238 3.7 03:33:10 58° NNW 03:33:10 58° NNW 03:39:59 10° NE
Cosmos 2173 Rocket 4.4 03:30:12 10° N 03:36:14 58° ENE 03:42:14 10° SSE
Cosmos 2333 Rocket 2.7 03:39:31 49° N 03:39:31 49° N 03:44:05 10° NNE
ADEOS II 3.8 03:37:56 10° N 03:39:55 22° N 03:39:55 22° N
Cosmos 1153 Rocket 4.3 03:38:39 10° NNW 03:44:50 83° W 03:51:04 10° S
Lacrosse 5 rocket 3.2 03:46:58 23° ENE 03:46:58 23° ENE 03:48:23 10° ENE
COSMOS 2455 2.8 03:45:06 69° NW 03:45:06 69° NW 03:51:04 10° NE
Cosmos 1939 Rocket 4.5 03:42:48 10° NNE 03:46:19 32° E 03:48:49 16° SSE
Cosmos 2298 Rocket 3.9 03:46:57 84° SSE 03:47:03 85° ESE 03:52:25 10° NNE
ACS3 Solar Sail 1.7 03:42:11 10° N 03:47:53 66° NW 03:47:53 66° NW
Cosmos 2369 Rocket 4.4 03:45:07 11° NNW 03:48:50 19° NNE 03:52:48 10° ENE
Resurs 1-4 Rocket 4.1 03:46:51 10° N 03:48:13 16° NNW 03:48:13 16° NNW
BlueWalker 3 4.0 03:53:51 20° SE 03:53:51 20° SE 03:55:06 10° SE
CENTAUR R/B 3.9 03:52:18 27° NW 03:55:57 42° NNE 04:04:11 10° E
USA 234 3.4 03:52:15 10° SSE 03:58:32 48° SW 03:58:53 47° SW
Cosmos 2360 Rocket 2.3 03:59:09 54° NW 03:59:09 54° NW 04:04:26 10° NNE
Cosmos 2322 Rocket 2.5 03:59:31 49° NW 03:59:31 49° NW 04:04:39 10° NNE
Helios 1A Rocket 4.2 03:58:26 10° SE 04:01:29 32° ENE 04:02:41 24° NNE
Cosmos 1461 4.5 04:04:45 24° N 04:04:45 24° N 04:06:50 10° NNE
Cosmos 44 Rocket 3.3 04:05:02 70° SW 04:05:02 70° SW 04:10:07 10° SSE
SL-16 R/B 3.1 04:06:02 32° NNW 04:06:02 32° NNW 04:10:29 10° NNE
Cosmos 1943 Rocket 2.2 04:06:17 29° NNW 04:09:11 77° ENE 04:14:42 10° SE
H-2A R/B 3.3 04:07:38 10° NNE 04:11:15 74° NE 04:11:15 74° NE
Okean 1-7 2.8 04:13:10 77° NNW 04:13:10 77° NNW 04:17:09 10° N
Meteor 2-14 Rocket 4.3 04:06:50 10° S 04:12:57 89° W 04:19:05 10° N
ARGOS 3.0 04:08:34 10° NNE 04:13:59 71° WNW 04:16:18 35° SW
Cosmos 1862 Rocket 4.0 04:15:09 46° NNW 04:15:09 46° NNW 04:18:18 10° N
PAYLOAD A 4.0 04:09:21 10° NNE 04:14:50 89° WNW 04:20:10 10° SSW
Cosmos 1908 Rocket 3.7 04:10:50 10° N 04:15:18 75° ENE 04:19:43 10° SSE
NOSS 2-1 (C) 4.1 04:14:57 34° SE 04:15:19 35° SE 04:18:09 10° ENE
Cosmos 1140 Rocket 3.3 04:15:55 49° NW 04:17:14 71° WSW 04:22:18 10° SSE
Timation 2 Rocket 4.0 04:14:48 24° NW 04:19:06 77° WSW 04:25:31 10° SSE
CZ-2C R/B 2.3 04:14:24 10° NNE 04:19:21 71° WNW 04:21:33 34° SW
NOSS 2-1 (D) 3.8 04:19:05 40° SE 04:19:21 41° SE 04:22:14 10° ENE
Cosmos 1300 Rocket 4.4 04:15:46 10° N 04:20:01 50° ENE 04:24:13 10° SSE
ADEOS Rocket 3.6 04:18:16 10° N 04:24:11 42° WNW 04:25:40 37° W
Cosmos 1809 Rocket 4.3 04:18:49 10° SSW 04:24:54 72° WNW 04:31:01 10° N
NOSS 3-1 (C) 3.2 04:27:24 25° SSW 04:30:18 70° SE 04:36:10 10° NE
Iridium 4 Rocket 3.4 04:26:12 10° N 04:30:38 66° E 04:34:46 10° SSE
Cosmos 2100 Rocket 3.9 04:24:53 10° NNW 04:30:56 62° W 04:36:59 10° S
SJ 16-02 3.1 04:27:28 10° N 04:31:17 29° NE 04:35:03 10° ESE
Cosmos 2219 Rocket 2.4 04:36:50 37° W 04:38:33 48° NW 04:44:04 10° NNE
IRS-1D 3.8 04:34:25 10° NNE 04:39:25 66° ESE 04:44:19 10° S
TIMED 4.5 04:40:17 44° WNW 04:41:14 55° WSW 04:45:23 10° S
SL-24 R/B - RUBIN 2 3.9 04:39:23 36° WSW 04:41:25 63° NW 04:46:13 10° NE
Cosmos 1707 Rocket 4.1 04:42:43 36° NW 04:42:43 36° NW 04:46:19 10° N
NOSS 0 Rocket 4.4 04:38:52 10° SSW 04:44:54 62° ESE 04:50:59 10° NE
COSMOS 2428 2.7 04:42:36 10° SSW 04:48:19 88° WNW 04:54:03 10° NNE
Cosmos 371 Rocket 4.5 04:45:24 10° NNW 04:50:00 42° NE 04:54:37 10° SE
SL-08 RB Rocket 4.0 04:46:35 10° N 04:50:57 44° WNW 04:53:28 22° SW
USA 59 Rocket -1.0 04:50:48 46° SW 04:51:37 89° NW 04:54:34 10° NE
Cosmos 1459 Rocket 4.2 04:45:58 10° NNW 04:52:06 50° W 04:58:09 10° SSW
Cosmos 1864 Rocket 4.5 04:46:53 10° NNW 04:53:03 63° W 04:59:16 10° S
Cosmos 2322 3.6 04:50:07 10° SW 04:55:48 72° NW 05:01:30 10° NNE
FengYun 1-2 T 4.1 04:50:23 10° NNE 04:55:56 77° WNW 05:01:31 10° SSW
CZ-2D R/B 4.2 04:55:13 10° NNW 04:55:38 11° NNW 04:55:38 11° NNW
Cosmos 407 Rocket 3.4 04:54:46 14° NNW 04:59:10 60° WSW 05:04:10 10° S
COSMO-SKYMED 1 2.3 04:55:32 10° SSE 04:59:40 79° WSW 05:03:49 10° NNW
Meteor 2-21 4.5 04:54:40 10° SSW 05:00:37 55° WNW 05:06:36 10° N
SKYMED 2 3.6 04:56:44 10° S 05:01:01 58° W 05:05:19 10° NNW
Cosmos 1484 Rocket 4.2 04:58:39 10° NNE 05:01:59 37° E 05:05:18 10° SSE
Cosmos 1725 Rocket 4.0 04:56:23 10° NNW 05:02:35 59° W 05:08:46 10° S
USA 267 3.3 04:56:17 10° ENE 05:02:48 74° NNW 05:07:39 19° W
Cosmos 1727 Rocket 4.3 04:57:30 10° SW 05:03:18 41° WNW 05:09:11 10° N
Cosmos 2228 Rocket 3.8 05:03:28 28° W 05:04:22 30° WNW 05:08:17 10° N
Cosmos 1980 4.1 05:02:30 10° SSW 05:08:05 67° ESE 05:13:44 10° NE
H-2A R/B 3.6 05:06:19 10° NNW 05:08:34 15° NW 05:08:34 15° NW
Cosmos 1802 Rocket 4.2 05:04:19 10° NNW 05:10:25 48° W 05:16:24 10° SSW
Cosmos 1656 Rocket 4.1 05:06:38 10° NNW 05:12:19 66° NE 05:17:57 10° SE
Cosmos 1980 Rocket 4.3 05:10:12 10° NNW 05:12:28 12° N 05:14:45 10° NNE
Cosmos 2233 Rocket 4.0 05:07:33 10° NNW 05:13:51 69° W 05:20:05 10° S
NOSS 3-1 (A) 3.5 05:09:44 10° SSW 05:14:28 64° SE 05:20:18 10° NE
Lacrosse 4 Rocket 3.8 05:14:07 10° N 05:16:03 13° NNE 05:17:57 10° NE
Cosmos 2278 Rocket 2.6 05:11:40 14° NW 05:16:08 41° WSW 05:21:22 10° S
Cosmos 1328 4.1 05:13:59 10° SW 05:17:21 35° WNW 05:20:45 10° N
Cosmos 2251 Rocket 3.5 05:12:41 10° NNW 05:18:02 73° WSW 05:23:22 10° SSE
Cosmos 304 Rocket 4.1 05:13:40 10° NNW 05:18:26 69° ENE 05:23:11 10° SE
Cosmos 1703 Rocket 3.7 05:14:33 10° SSW 05:18:45 47° WNW 05:23:02 10° N
Cosmos 1939 Rocket 3.6 05:16:51 10° N 05:20:14 29° WNW 05:23:34 10° SW
NOSS 2-1 (E) 2.7 05:18:52 16° WSW 05:21:26 65° NW 05:24:28 10° NE
Lacrosse 5 rocket 1.6 05:20:39 22° WNW 05:22:22 38° N 05:25:33 10° ENE
Meteor 2-16 Rocket 4.5 05:17:12 10° SSW 05:23:12 59° WNW 05:29:17 10° N
Cosmos 2333 Rocket 3.7 05:21:32 16° WNW 05:23:56 20° NNW 05:28:07 10° NNE
Cosmos 2237 Rocket 2.3 05:18:42 10° SSW 05:24:22 80° ESE 05:30:03 10° NNE
BlueWalker 3 3.9 05:27:40 12° WSW 05:28:31 13° SW 05:30:06 10° SSW
Cosmos 2292 Rocket 3.9 05:24:54 10° SSW 05:29:13 56° WNW 05:34:51 10° N
ACS3 Solar Sail 3.2 05:26:30 10° NNW 05:30:07 17° NW 05:32:02 15° WNW
NOSS 7 (E) 4.2 05:29:14 16° NW 05:31:40 81° NE 05:34:54 10° SE
COSMOS 2455 3.9 05:28:15 16° WNW 05:31:58 27° NNW 05:37:05 10° NE
Meteor 1-24 Rocket 4.0 05:28:34 10° SW 05:34:02 44° WNW 05:39:21 10° N
Cosmos 2369 Rocket 2.9 05:28:32 10° NNW 05:34:08 55° NE 05:39:43 10° SE
Helios 1A Rocket 3.6 05:31:32 10° SSW 05:34:15 22° W 05:36:22 14° NW
CZ-4 R/B 4.1 05:29:58 10° N 05:34:44 50° WNW 05:39:24 10° SW
Cosmos 2242 Rocket 4.0 05:30:52 10° S 05:35:12 68° E 05:39:37 10° NNE
Cosmos 1782 Rocket 4.1 05:33:00 10° NNW 05:37:02 35° W 05:41:00 10° SSW
Cosmos 968 Rocket 4.2 05:35:30 10° NNW 05:40:39 55° ENE 05:45:48 10° SE
NOAA 12 4.3 05:38:51 10° N 05:43:59 51° WNW 05:49:07 10° SW
Cosmos 2360 Rocket 3.7 05:40:55 12° WNW 05:44:07 19° NNW 05:48:05 10° NNE
Cosmos 2322 Rocket 3.8 05:41:20 12° WNW 05:44:31 18° NNW 05:48:21 10° NNE
Cosmos 2123 Rocket 4.4 05:39:06 10° SW 05:44:50 38° WNW 05:50:34 10° N
Meteor 2-5 Rocket 4.2 05:39:42 10° SW 05:45:16 41° WNW 05:50:48 10° N
Cosmos 1420 Rocket 4.0 05:41:12 10° SSW 05:46:29 88° WNW 05:51:50 10° NNE
Gbstr 26 Del rocket 3.9 05:41:45 10° WSW 05:46:56 75° SSE 05:53:22 10° E
CENTAUR R/B 3.4 05:39:55 10° NW 05:47:48 75° NE 05:57:05 10° SE
ARIANE 5 R/B 4.0 05:44:44 10° NNE 05:49:32 42° E 05:54:21 10° S
SL-16 R/B 4.0 05:48:17 10° NW 05:51:19 14° NNW 05:54:20 10° NNE
TiPS 4.3 05:49:30 10° SW 05:51:53 62° NW 05:54:10 10° NE
Cosmos 1943 Rocket 3.3 05:48:10 10° NW 05:52:19 22° WSW 05:56:25 10° SSW
Cosmos 1812 2.0 05:53:17 10° NNW 05:56:11 56° W 05:59:02 10° S
CZ-2C R/B 4.0 05:53:51 10° NNW 05:56:37 15° NW 05:59:26 10° W
SMAP 3.7 05:53:48 10° NNE 05:58:26 62° ESE 06:03:03 10° S
CZ-2D R/B 3.8 05:58:04 10° NNE 06:01:11 51° E 06:04:17 10° S
NOSS 2-1 (C) 3.7 06:01:26 10° W 06:04:13 27° NNW 06:06:52 10° NNE
Cosmos 1025 Rocket 4.2 06:03:10 10° S 06:07:21 49° E 06:11:35 10° NNE
NOSS 2-1 (D) 3.8 06:05:34 10° W 06:08:15 25° NNW 06:10:48 10° NNE
SJ 16-02 1.8 06:05:29 10° NW 06:09:32 41° WSW 06:13:33 10° S
Aureole 3 Rocket 3.7 06:06:32 10° NNW 06:10:28 43° W 06:15:42 10° SSW
Okean 1 Rocket 3.3 06:06:27 10° N 06:10:49 74° ENE 06:15:08 10° SSE
